Weather History for KPTK - January, 2014

Change the Weather History Date:

Thursday, January 30, 2014

  Actual Average Record
Temperature  
Mean Temperature 17 °F -  
Max Temperature 25 °F 30 °F 68 °F (2013)
Min Temperature 9 °F 16 °F 1 °F (2003)
Degree Days  
Heating Degree Days 48    
Moisture  
Dew Point 10 °F    
Average Humidity 70    
Maximum Humidity 93    
Minimum Humidity 50    
Precipitation  
Precipitation 0.01 in - - ()
Snow  
Snow 0.00 in - - ()
Snow Depth 10.00 in    
Sea Level Pressure  
Sea Level Pressure 29.91 in    
Wind  
Wind Speed 11 mph (SSW)    
Max Wind Speed 18 mph    
Max Gust Speed 33 mph    
Visibility 7 miles    
Events Fog , Snow    
Averages and records for this station are not official NWS values.
T = Trace of Precipitation, MM = Missing Value Source: NWS Daily Summary

Daily Weather History Graph

Daily Weather History Graph

Search for Another Location

Airport or City:

Trip Planner

Search our weather history database for the weather conditions in past years. The results will help you decide how hot, cold, wet, or windy it might be!

Date:

Astronomy

Jan. 30, 2014 Rise Set
Actual Time 7:49 AM EST 5:44 PM EST
Civil Twilight 7:19 AM EST 6:14 PM EST
Nautical Twilight 6:46 AM EST 6:48 PM EST
Astronomical Twilight 6:12 AM EST 7:21 PM EST
Moon 7:14 AM EST (1/30) 5:56 PM EST (1/30)
Length of Visible Light 10h 54m
Length of Day
9h 54m
Waning Crescent, 0% of the Moon is Illuminated
Jan 30
Waning Crescent
Jan 30
New
Feb 6
First Quarter
Feb 14
Full
Feb 22
Last Quarter

Hourly Weather History & Observations

Time (EST) Temp. Windchill Dew Point Humidity Pressure Visibility Wind Dir Wind Speed Gust Speed Precip Events Conditions
12:53 AM 9.0 °F -2.2 °F -0.0 °F 67% 30.14 in 10.0 mi South 6.9 mph - N/A   Clear
1:53 AM 9.0 °F -2.2 °F -0.0 °F 67% 30.13 in 10.0 mi South 6.9 mph - N/A   Clear
2:53 AM 9.0 °F -2.2 °F -0.0 °F 67% 30.13 in 10.0 mi South 6.9 mph - N/A   Clear
3:53 AM 9.0 °F -2.2 °F -0.0 °F 67% 30.12 in 10.0 mi South 6.9 mph - N/A   Clear
4:53 AM 10.9 °F -3.4 °F -0.0 °F 61% 30.10 in 10.0 mi South 11.5 mph 18.4 mph N/A   Clear
5:53 AM 10.9 °F -2.6 °F -0.0 °F 61% 30.11 in 10.0 mi South 10.4 mph - N/A   Partly Cloudy
6:53 AM 10.9 °F -2.6 °F -0.0 °F 61% 30.09 in 10.0 mi South 10.4 mph 18.4 mph N/A   Clear
7:53 AM 12.0 °F -1.3 °F -0.0 °F 59% 30.09 in 10.0 mi South 10.4 mph 21.9 mph N/A   Scattered Clouds
8:53 AM 12.9 °F -1.6 °F 1.0 °F 59% 30.08 in 10.0 mi South 12.7 mph 21.9 mph N/A   Mostly Cloudy
9:53 AM 16.0 °F 1.7 °F 1.9 °F 54% 30.06 in 10.0 mi SSW 13.8 mph 20.7 mph N/A   Mostly Cloudy
10:53 AM 17.1 °F 3.0 °F 3.0 °F 54% 30.04 in 10.0 mi South 13.8 mph 19.6 mph N/A   Mostly Cloudy
11:53 AM 19.9 °F 7.3 °F 3.9 °F 50% 30.01 in 10.0 mi South 12.7 mph 24.2 mph N/A   Overcast
12:53 PM 19.9 °F 6.7 °F 5.0 °F 52% 29.97 in 10.0 mi South 13.8 mph 20.7 mph N/A   Overcast
1:53 PM 21.9 °F 8.2 °F 6.1 °F 51% 29.92 in 10.0 mi South 16.1 mph 26.5 mph N/A   Overcast
2:53 PM 21.9 °F 7.3 °F 6.1 °F 51% 29.85 in 10.0 mi South 18.4 mph 24.2 mph N/A   Overcast
3:53 PM 21.9 °F 8.2 °F 6.1 °F 51% 29.80 in 10.0 mi South 16.1 mph 24.2 mph N/A   Overcast
4:53 PM 21.0 °F 8.1 °F 7.0 °F 55% 29.80 in 10.0 mi SSE 13.8 mph 25.3 mph N/A   Overcast
5:53 PM 21.0 °F 8.1 °F 7.0 °F 55% 29.81 in 10.0 mi South 13.8 mph 26.5 mph N/A   Overcast
6:53 PM 21.9 °F 7.8 °F 10.9 °F 63% 29.83 in 3.0 mi SSW 17.3 mph 24.2 mph 0.00 in Snow Light Snow
6:57 PM 21.2 °F 7.8 °F 12.2 °F 68% 29.78 in 0.8 mi SSW 15.0 mph 33.4 mph 0.00 in Snow Light Snow
7:01 PM 19.4 °F 6.6 °F 15.8 °F 86% 29.78 in 0.5 mi SSW 12.7 mph 33.4 mph 0.00 in Snow Snow
7:08 PM 19.4 °F 5.0 °F 15.8 °F 86% 29.78 in 0.5 mi SSW 16.1 mph 23.0 mph 0.00 in Fog , Snow Snow
7:16 PM 19.4 °F 6.6 °F 17.6 °F 93% 29.78 in 0.8 mi SSW 12.7 mph 21.9 mph 0.00 in Snow Light Snow
7:23 PM 19.4 °F 7.9 °F 17.6 °F 93% 29.77 in 1.8 mi SSW 10.4 mph 19.6 mph 0.00 in Snow Light Snow
7:30 PM 21.2 °F 8.9 °F 17.6 °F 86% 29.77 in 1.5 mi SSW 12.7 mph 19.6 mph 0.01 in Snow Light Snow
7:39 PM 21.2 °F 9.5 °F 17.6 °F 86% 29.77 in 1.8 mi SSW 11.5 mph 20.7 mph 0.01 in Snow Light Snow
7:43 PM 21.2 °F 9.5 °F 17.6 °F 86% 29.77 in 3.0 mi SSW 11.5 mph - 0.01 in Snow Light Snow
7:53 PM 21.0 °F 9.3 °F 17.1 °F 85% 29.82 in 7.0 mi SSW 11.5 mph 18.4 mph 0.01 in Snow Light Snow
8:53 PM 23.0 °F 10.6 °F 17.1 °F 78% 29.82 in 7.0 mi SW 13.8 mph 27.6 mph 0.00 in Snow Light Snow
9:53 PM 24.1 °F 12.5 °F 18.0 °F 77% 29.82 in 8.0 mi SW 12.7 mph 24.2 mph 0.00 in Snow Light Snow
10:49 PM 24.8 °F 12.4 °F 19.4 °F 80% 29.78 in 5.0 mi SW 15.0 mph 20.7 mph 0.00 in Snow Light Freezing Drizzle
10:53 PM 25.0 °F 12.6 °F 19.9 °F 81% 29.83 in 5.0 mi SW 15.0 mph 20.7 mph 0.00 in Snow Light Freezing Drizzle
11:09 PM 24.8 °F 14.6 °F 19.4 °F 80% 29.79 in 6.0 mi SW 10.4 mph 19.6 mph 0.00 in Snow Light Freezing Drizzle
11:48 PM 24.8 °F 13.4 °F 21.2 °F 86% 29.79 in 5.0 mi SW 12.7 mph - 0.00 in Snow Light Snow
11:53 PM 25.0 °F 14.2 °F 21.9 °F 88% 29.83 in 5.0 mi SW 11.5 mph - 0.00 in Snow Light Snow